EW6627 St Petersburg FL US current weather conditions

sailwx.info

Wind from 046 at 0 knots gusting 4

Air temperature 26.1° C
Dewpoint 22.0° C

Last reported at 2019-Jul-21 22:09 UTC.
Time now 2019-Jul-21 23:08 UTC

Location: N 27°47' W 082°41'.
View on Google Maps.

See reports from other nearby stations

  
Tides and Currents Weather Stations Pressure Air Temp Water Temp Dewpoint Dewpoint Depression Visibility Wind Speed Wind Dir Waves Ship Positions
date/time (UTC)wind fromknots sea level pressurealtimeterstation pressurevisibilityair tempwater tempwave heightnotes
2019-Jul-21 22:09 046 0 gusting 4 26.1
2019-Jul-21 22:04 028 1 gusting 4 26.1
2019-Jul-21 21:59 017 1 gusting 5 26.1
2019-Jul-21 21:54 038 0 gusting 5 26.1
2019-Jul-21 21:49 024 26.1
2019-Jul-21 21:44 100 0 gusting 3 26.7
2019-Jul-21 21:39 100 0 gusting 3 26.7
2019-Jul-21 21:34 048 1 gusting 4 26.7
2019-Jul-21 21:29 026 2 gusting 8 26.7
2019-Jul-21 21:24 015 2 gusting 8 26.7
2019-Jul-21 21:19 136 1 gusting 3 26.7
2019-Jul-21 21:14 046 2 gusting 7 26.1
2019-Jul-21 21:09 217 3 gusting 8 26.1
2019-Jul-21 21:04 184 2 gusting 8 26.7
2019-Jul-21 20:59 290 2 gusting 9 27.8
2019-Jul-21 20:54 173 2 gusting 9 28.9
2019-Jul-21 20:49 194 1 gusting 9 30.6
2019-Jul-21 20:44 178 1 gusting 8 30.6
2019-Jul-21 20:39 238 2 gusting 8 31.1
2019-Jul-21 20:34 223 1 gusting 6 31.1
2019-Jul-21 20:29 215 1 gusting 5 31.1
2019-Jul-21 20:24 173 3 gusting 8 31.1
2019-Jul-21 20:19 252 3 gusting 8 31.1
2019-Jul-21 20:14 202 3 gusting 7 31.7
2019-Jul-21 20:09 167 4 gusting 9 31.7
2019-Jul-21 20:04 263 5 gusting 10 32.2
2019-Jul-21 19:59 220 3 gusting 10 32.2
2019-Jul-21 19:54 213 3 gusting 8 32.8
2019-Jul-21 19:49 232 3 gusting 8 32.2
2019-Jul-21 19:44 197 3 gusting 7 32.8
2019-Jul-21 19:39 329 2 gusting 7 32.2
2019-Jul-21 19:34 323 2 gusting 6 32.2
2019-Jul-21 19:29 277 2 gusting 6 32.2
2019-Jul-21 19:24 180 2 gusting 6 32.2
2019-Jul-21 19:19 240 1 gusting 6 31.7
2019-Jul-21 19:14 277 2 gusting 7 31.1
2019-Jul-21 19:09 229 2 gusting 7 30.6
2019-Jul-21 19:04 258 2 gusting 6 31.1
2019-Jul-21 18:59 209 2 gusting 6 30.6
2019-Jul-21 18:54 351 3 gusting 10 30.6
2019-Jul-21 18:49 336 5 gusting 12 30.6
2019-Jul-21 18:44 355 4 gusting 18 30.6
2019-Jul-21 18:39 327 2 gusting 18 31.1
2019-Jul-21 18:34 275 2 gusting 7 32.2
2019-Jul-21 18:29 177 2 gusting 10 32.2
2019-Jul-21 18:24 175 2 gusting 10 32.2
2019-Jul-21 18:19 178 2 gusting 7 32.2
2019-Jul-21 18:14 204 2 gusting 7 32.2
2019-Jul-21 18:09 219 1 gusting 6 32.2
2019-Jul-21 18:04 255 1 gusting 6 32.2
2019-Jul-21 17:59 250 0 gusting 4 32.2
2019-Jul-21 17:54 195 1 gusting 7 32.2
2019-Jul-21 17:49 181 0 gusting 7 32.2
2019-Jul-21 17:44 180 0 gusting 7 32.8
2019-Jul-21 17:39 171 1 gusting 7 32.2
2019-Jul-21 17:34 182 1 gusting 5 32.2
2019-Jul-21 17:29 243 0 gusting 5 32.8
2019-Jul-21 17:24 199 0 gusting 3 33.3
2019-Jul-21 17:19 178 0 gusting 3 32.8
2019-Jul-21 17:14 199 0 gusting 5 32.2
2019-Jul-21 17:09 183 0 gusting 5 32.2
2019-Jul-21 17:04 178 0 gusting 6 32.8
2019-Jul-21 16:59 178 0 gusting 6 32.8
2019-Jul-21 16:54 196 0 gusting 4 33.3
2019-Jul-21 16:49 128 0 gusting 4 32.8
2019-Jul-21 16:44 117 0 gusting 3 32.8
2019-Jul-21 16:39 211 0 gusting 3 33.3
2019-Jul-21 16:34 117 33.9
2019-Jul-21 16:29 056 33.3
2019-Jul-21 16:24 116 32.8
2019-Jul-21 16:19 119 32.2
2019-Jul-21 16:14 119 0 gusting 4 31.7
2019-Jul-21 16:09 180 0 gusting 5 31.7
2019-Jul-21 16:04 204 0 gusting 5 31.7
2019-Jul-21 15:59 134 0 gusting 6 32.2
2019-Jul-21 15:54 111 0 gusting 6 32.2
2019-Jul-21 15:49 113 0 gusting 5 32.2
2019-Jul-21 15:44 109 0 gusting 5 32.2
2019-Jul-21 15:39 099 0 gusting 6 32.2
2019-Jul-21 15:34 129 0 gusting 6 32.2
2019-Jul-21 15:29 040 0 gusting 6 31.7
2019-Jul-21 15:24 119 31.7
2019-Jul-21 15:19 116 31.7
2019-Jul-21 15:14 126 0 gusting 5 31.7
2019-Jul-21 15:09 114 31.7
2019-Jul-21 15:04 313 31.7
2019-Jul-21 14:59 344 31.7
2019-Jul-21 14:54 130 0 gusting 5 31.1
2019-Jul-21 14:49 125 31.1
2019-Jul-21 14:44 293 30.6
2019-Jul-21 14:39 182 30.6
2019-Jul-21 14:34 324 30.6
2019-Jul-21 14:29 344 0 gusting 4 30.6
2019-Jul-21 14:24 120 0 gusting 4 30.0
2019-Jul-21 14:19 108 0 gusting 5 30.0
2019-Jul-21 14:14 121 0 gusting 5 29.4
2019-Jul-21 14:09 120 29.4
2019-Jul-21 14:04 123 29.4
2019-Jul-21 13:59 088 29.4
2019-Jul-21 13:54 115 28.9
2019-Jul-21 13:49 052 28.9
2019-Jul-21 13:44 124 0 gusting 6 28.3
2019-Jul-21 13:39 109 0 gusting 6 28.3
2019-Jul-21 13:34 119 28.3
2019-Jul-21 13:29 045 27.8
2019-Jul-21 13:24 330 27.8
2019-Jul-21 13:19 161 27.2
2019-Jul-21 13:14 123 27.2
2019-Jul-21 13:09 094 26.7
2019-Jul-21 13:04 26.1
2019-Jul-21 12:59 134 26.1
2019-Jul-21 12:53 085 26.1
2019-Jul-21 12:49 338 26.1
2019-Jul-21 12:44 044 25.6
2019-Jul-21 12:38 292 25.6
2019-Jul-21 12:33 017 25.6
2019-Jul-21 12:29 017 25.6
2019-Jul-21 12:23 017 25.6
2019-Jul-21 12:18 121 25.6
2019-Jul-21 12:13 121 25.6
2019-Jul-21 12:08 141 25.0
2019-Jul-21 12:03 130 25.0
2019-Jul-21 11:58 130 25.0
2019-Jul-21 11:53 130 25.0
2019-Jul-21 11:48 131 25.0
2019-Jul-21 11:44 133 25.0
2019-Jul-21 11:39 075 25.0
2019-Jul-21 11:34 123 24.4
2019-Jul-21 11:28 020 24.4
2019-Jul-21 11:23 094 24.4
2019-Jul-21 11:18 094 24.4
2019-Jul-21 11:13 145 24.4
2019-Jul-21 11:08 145 24.4
2019-Jul-21 11:03 145 24.4
2019-Jul-21 10:58 145 24.4
2019-Jul-21 10:53 145 24.4
2019-Jul-21 10:48 145 24.4
2019-Jul-21 10:43 145 24.4
2019-Jul-21 10:38 145 24.4
2019-Jul-21 10:33 145 24.4
2019-Jul-21 10:28 145 24.4
2019-Jul-21 10:23 145 24.4
2019-Jul-21 10:18 145 24.4
2019-Jul-21 10:13 145 24.4
2019-Jul-21 10:09 145 24.4
2019-Jul-21 10:04 145 24.4
2019-Jul-21 09:59 145 24.4
2019-Jul-21 09:54 145 24.4
2019-Jul-21 09:48 145 24.4
2019-Jul-21 09:43 145 24.4
2019-Jul-21 09:38 126 24.4
2019-Jul-21 09:33 072 24.4
2019-Jul-21 09:28 041 24.4
2019-Jul-21 09:23 041 24.4
2019-Jul-21 09:18 041 23.9
2019-Jul-21 09:13 041 24.4
2019-Jul-21 09:08 041 24.4
2019-Jul-21 09:03 041 23.9
2019-Jul-21 08:58 041 23.9
2019-Jul-21 08:53 041 23.9
2019-Jul-21 08:48 041 23.9
2019-Jul-21 08:43 041 23.9
2019-Jul-21 08:39 041 23.9
2019-Jul-21 08:33 041 23.9
2019-Jul-21 08:29 041 23.9
2019-Jul-21 08:23 041 23.9
2019-Jul-21 08:19 041 23.9
2019-Jul-21 08:13 041 23.9
2019-Jul-21 08:08 041 23.9
2019-Jul-21 08:03 041 23.9
2019-Jul-21 07:58 041 23.9
2019-Jul-21 07:53 041 23.9
2019-Jul-21 07:48 042 23.9
2019-Jul-21 07:43 027 23.9
2019-Jul-21 07:38 027 23.9
2019-Jul-21 07:33 027 23.9
2019-Jul-21 07:28 027 23.9
2019-Jul-21 07:23 027 23.9
2019-Jul-21 07:18 027 23.9
2019-Jul-21 07:13 027 23.9
2019-Jul-21 07:08 027 23.9
2019-Jul-21 07:03 027 23.3
2019-Jul-21 06:59 027 23.3
2019-Jul-21 06:53 027 23.3
2019-Jul-21 06:48 027 23.3
2019-Jul-21 06:43 027 23.3
2019-Jul-21 06:38 027 23.3
2019-Jul-21 06:33 027 23.3
2019-Jul-21 06:28 027 23.3
2019-Jul-21 06:23 027 23.3
2019-Jul-21 06:18 027 23.3
2019-Jul-21 06:13 027 23.3
2019-Jul-21 06:08 027 23.3
2019-Jul-21 06:03 027 23.3
2019-Jul-21 05:58 027 23.3
2019-Jul-21 05:53 027 23.9
2019-Jul-21 05:48 027 23.9
2019-Jul-21 05:43 027 23.9
2019-Jul-21 05:38 027 23.9
2019-Jul-21 05:33 027 23.9
2019-Jul-21 05:28 027 23.9
2019-Jul-21 05:23 027 23.9
2019-Jul-21 05:18 027 23.9
2019-Jul-21 05:13 027 23.9
2019-Jul-21 05:08 027 23.9
2019-Jul-21 05:03 027 23.9
2019-Jul-21 04:58 027 23.9
2019-Jul-21 04:53 027 24.4
2019-Jul-21 04:48 026 24.4
2019-Jul-21 04:43 025 24.4
2019-Jul-21 04:38 025 24.4
2019-Jul-21 04:33 026 24.4
2019-Jul-21 04:28 026 24.4
2019-Jul-21 04:23 026 24.4
2019-Jul-21 04:18 026 24.4
2019-Jul-21 04:13 026 24.4
2019-Jul-21 04:08 026 24.4
2019-Jul-21 04:03 026 24.4
2019-Jul-21 03:58 026 24.4
2019-Jul-21 03:53 026 24.4
2019-Jul-21 03:48 026 24.4
2019-Jul-21 03:43 026 24.4
2019-Jul-21 03:38 026 24.4
2019-Jul-21 03:33 026 24.4
2019-Jul-21 03:28 026 24.4
2019-Jul-21 03:23 026 24.4
2019-Jul-21 03:18 026 24.4
2019-Jul-21 03:13 026 24.4
2019-Jul-21 03:08 026 23.9
2019-Jul-21 03:03 026 23.9
2019-Jul-21 02:58 026 23.9
2019-Jul-21 02:53 026 23.9
2019-Jul-21 02:48 026 23.9
2019-Jul-21 02:43 026 23.9
2019-Jul-21 02:38 026 23.9
2019-Jul-21 02:33 026 23.9
2019-Jul-21 02:28 022 23.9
2019-Jul-21 02:23 022 23.9
2019-Jul-21 02:18 022 24.4
2019-Jul-21 02:13 022 23.9
2019-Jul-21 02:08 022 23.9
2019-Jul-21 02:03 022 23.9
2019-Jul-21 01:58 022 23.9
2019-Jul-21 01:53 022 24.4
2019-Jul-21 01:48 022 24.4
2019-Jul-21 01:43 022 24.4
2019-Jul-21 01:38 022 24.4
2019-Jul-21 01:33 022 24.4
2019-Jul-21 01:28 022 24.4
2019-Jul-21 01:23 022 24.4
2019-Jul-21 01:18 022 24.4
2019-Jul-21 01:13 022 24.4
2019-Jul-21 01:08 022 24.4
2019-Jul-21 01:03 022 24.4
2019-Jul-21 00:58 022 24.4
2019-Jul-21 00:53 022 24.4
2019-Jul-21 00:48 022 0 gusting 3 23.9
2019-Jul-21 00:43 355 0 gusting 4 23.9
2019-Jul-21 00:38 038 0 gusting 4 23.3
2019-Jul-21 00:33 055 0 gusting 3 23.3
2019-Jul-21 00:28 014 0 gusting 3 23.3
2019-Jul-21 00:23 030 0 gusting 4 23.3
2019-Jul-21 00:18 005 1 gusting 5 23.3
2019-Jul-21 00:13 034 0 gusting 5 23.3
2019-Jul-21 00:08 014 23.3
2019-Jul-21 00:03 012 23.3
2019-Jul-20 23:58 030 23.3
2019-Jul-20 23:53 030 23.3
2019-Jul-20 23:48 329 23.3
2019-Jul-20 23:43 078 23.3
2019-Jul-20 23:38 080 22.8
2019-Jul-20 23:33 080 22.8
2019-Jul-20 23:28 063 22.8
2019-Jul-20 23:23 054 22.8
2019-Jul-20 23:18 052 22.8
2019-Jul-20 23:13 051 22.8
2019-Jul-20 23:08 052 22.8
2019-Jul-20 23:03 245 22.8
2019-Jul-20 22:58 245 22.8
2019-Jul-20 22:53 244 0 gusting 4 22.2
2019-Jul-20 22:48 244 1 gusting 6 22.2
2019-Jul-20 22:43 187 1 gusting 6 22.8
2019-Jul-20 22:38 213 1 gusting 6 22.2
2019-Jul-20 22:33 167 2 gusting 8 22.2
2019-Jul-20 22:28 251 2 gusting 13 22.2
2019-Jul-20 22:23 099 1 gusting 13 22.2
2019-Jul-20 22:18 168 2 gusting 8 22.8
2019-Jul-20 22:13 290 4 gusting 17 23.9
2019-Jul-20 22:08 319 4 gusting 17 25.6
2019-Jul-20 22:03 024 1 gusting 7 28.3
2019-Jul-20 21:58 063 2 gusting 7 29.4
2019-Jul-20 21:53 129 1 gusting 7 30.6
2019-Jul-20 21:48 118 1 gusting 7 31.7
2019-Jul-20 21:43 269 1 gusting 3 31.1
2019-Jul-20 21:38 178 1 gusting 3 31.1
2019-Jul-20 21:33 177 1 gusting 5 31.7
2019-Jul-20 21:28 281 3 gusting 11 32.2
2019-Jul-20 21:23 308 4 gusting 11 32.8
2019-Jul-20 21:18 269 2 gusting 11 33.3
2019-Jul-20 21:13 188 1 gusting 6 33.9
2019-Jul-20 21:08 186 1 gusting 5 34.4
2019-Jul-20 21:03 209 2 gusting 5 34.4
2019-Jul-20 20:58 251 0 gusting 3 36.1
2019-Jul-20 20:53 119 0 gusting 2 36.7
2019-Jul-20 20:48 119 0 gusting 2 36.7
2019-Jul-20 20:43 119 0 gusting 2 36.1
2019-Jul-20 20:38 027 0 gusting 3 35.6
2019-Jul-20 20:33 036 1 gusting 5 35.6
2019-Jul-20 20:28 107 1 gusting 5 36.1
2019-Jul-20 20:23 308 1 gusting 6 36.7
2019-Jul-20 20:18 124 1 gusting 6 37.2
2019-Jul-20 20:13 121 0 gusting 4 37.8
2019-Jul-20 20:08 042 1 gusting 4 37.2
2019-Jul-20 20:03 092 1 gusting 3 37.2
2019-Jul-20 19:58 146 1 gusting 5 37.2
2019-Jul-20 19:53 031 0 gusting 5 37.2
2019-Jul-20 19:48 028 1 gusting 6 36.1
2019-Jul-20 19:43 126 1 gusting 6 36.1
2019-Jul-20 19:38 110 1 gusting 3 35.6
2019-Jul-20 19:33 193 0 gusting 3 35.6
2019-Jul-20 19:28 199 0 gusting 2 35.6
2019-Jul-20 19:23 128 1 gusting 5 36.1
2019-Jul-20 19:18 128 1 gusting 5 36.1
2019-Jul-20 19:13 128 1 gusting 3 36.7
2019-Jul-20 19:08 178 0 gusting 5 36.1
2019-Jul-20 19:03 119 0 gusting 5 36.1
2019-Jul-20 18:58 094 1 gusting 5 35.6
2019-Jul-20 18:53 118 2 gusting 5 35.0
2019-Jul-20 18:48 127 1 gusting 4 35.6
2019-Jul-20 18:43 180 1 gusting 4 36.1
2019-Jul-20 18:38 141 0 gusting 5 37.2
2019-Jul-20 18:33 027 0 gusting 5 36.7
2019-Jul-20 18:28 103 0 gusting 3 36.7
2019-Jul-20 18:23 046 0 gusting 3 35.6
2019-Jul-20 18:18 117 1 gusting 3 35.0
2019-Jul-20 18:13 221 1 gusting 4 34.4
2019-Jul-20 18:08 148 1 gusting 5 34.4
2019-Jul-20 18:03 207 0 gusting 5 35.0
2019-Jul-20 17:58 164 1 gusting 3 34.4
2019-Jul-20 17:53 169 1 gusting 6 34.4
2019-Jul-20 17:48 183 1 gusting 6 35.0
2019-Jul-20 17:43 015 0 gusting 4 35.0
2019-Jul-20 17:38 096 0 gusting 3 34.4
2019-Jul-20 17:33 214 1 gusting 6 34.4
2019-Jul-20 17:28 256 1 gusting 6 34.4
2019-Jul-20 17:23 190 1 gusting 5 34.4
2019-Jul-20 17:18 169 0 gusting 5 34.4
2019-Jul-20 17:13 134 1 gusting 5 33.3
2019-Jul-20 17:08 128 1 gusting 4 32.8
2019-Jul-20 17:03 126 2 gusting 6 31.7
2019-Jul-20 16:58 209 2 gusting 6 31.7
2019-Jul-20 16:53 199 1 gusting 6 31.7
2019-Jul-20 16:48 259 2 gusting 6 31.7
2019-Jul-20 16:43 247 1 gusting 6 32.2
2019-Jul-20 16:38 226 1 gusting 5 32.8
2019-Jul-20 16:33 116 2 gusting 5 31.7
2019-Jul-20 16:28 192 2 gusting 5 31.7
2019-Jul-20 16:23 169 2 gusting 5 31.7
2019-Jul-20 16:18 191 1 gusting 5 31.7
2019-Jul-20 16:13 183 1 gusting 4 32.2
2019-Jul-20 16:08 174 1 gusting 5 31.7
2019-Jul-20 16:03 171 1 gusting 6 31.7
2019-Jul-20 15:58 139 1 gusting 6 31.7
2019-Jul-20 15:53 190 1 gusting 6 32.2
2019-Jul-20 15:48 146 1 gusting 6 31.7
2019-Jul-20 15:43 090 1 gusting 6 31.7
2019-Jul-20 15:38 057 1 gusting 5 31.7
2019-Jul-20 15:33 146 1 gusting 6 31.7
2019-Jul-20 15:28 009 1 gusting 6 31.7
2019-Jul-20 15:23 119 1 gusting 3 31.7
2019-Jul-20 15:18 109 1 gusting 3 31.1
2019-Jul-20 15:13 126 1 gusting 6 30.0
2019-Jul-20 15:08 186 2 gusting 6 30.0
2019-Jul-20 15:03 146 1 gusting 6 30.6
2019-Jul-20 14:58 111 2 gusting 7 30.6
2019-Jul-20 14:53 202 2 gusting 7 30.6
2019-Jul-20 14:48 205 1 gusting 5 31.1
2019-Jul-20 14:43 122 1 gusting 6 30.6
2019-Jul-20 14:38 128 1 gusting 6 30.6
2019-Jul-20 14:33 076 1 gusting 6 30.0
2019-Jul-20 14:28 225 1 gusting 6 30.0
2019-Jul-20 14:23 146 1 gusting 6 30.0
2019-Jul-20 14:18 088 1 gusting 6 29.4
2019-Jul-20 14:13 184 1 gusting 6 29.4
2019-Jul-20 14:08 124 1 gusting 6 29.4
2019-Jul-20 14:03 244 2 gusting 6 29.4
2019-Jul-20 13:57 104 2 gusting 6 28.9
2019-Jul-20 13:52 186 1 gusting 6 29.4
2019-Jul-20 13:47 184 1 gusting 6 29.4
2019-Jul-20 13:42 096 1 gusting 6 29.4
2019-Jul-20 13:37 164 1 gusting 5 29.4
2019-Jul-20 13:32 111 1 gusting 5 28.9
2019-Jul-20 13:27 100 2 gusting 6 28.9
2019-Jul-20 13:22 192 1 gusting 6 28.9
2019-Jul-20 13:17 125 1 gusting 6 28.3
2019-Jul-20 13:12 109 0 gusting 6 28.3
2019-Jul-20 13:07 121 0 gusting 6 27.8
2019-Jul-20 13:02 119 1 gusting 6 27.8
2019-Jul-20 12:57 102 1 gusting 3 27.8
2019-Jul-20 12:52 117 1 gusting 6 27.8
2019-Jul-20 12:47 145 1 gusting 6 27.2
2019-Jul-20 12:43 128 1 gusting 6 27.2
2019-Jul-20 12:38 121 0 gusting 3 27.2
2019-Jul-20 12:33 292 0 gusting 3 27.2
2019-Jul-20 12:27 053 1 gusting 6 27.2
2019-Jul-20 12:22 123 0 gusting 6 27.2
2019-Jul-20 12:17 355 1 gusting 6 27.2
2019-Jul-20 12:12 126 1 gusting 6 26.7
2019-Jul-20 12:07 126 0 gusting 5 26.7
2019-Jul-20 12:02 095 0 gusting 5 26.7
2019-Jul-20 11:57 108 0 gusting 5 26.7
2019-Jul-20 11:52 105 0 gusting 6 26.7
2019-Jul-20 11:47 135 0 gusting 6 26.7
2019-Jul-20 11:42 150 0 gusting 1 26.1
2019-Jul-20 11:37 150 26.1
2019-Jul-20 11:32 136 26.1
2019-Jul-20 11:27 105 26.1
2019-Jul-20 11:22 107 26.1
2019-Jul-20 11:17 107 26.1
2019-Jul-20 11:12 150 26.1
2019-Jul-20 11:07 130 26.1
2019-Jul-20 11:02 130 26.1
2019-Jul-20 10:58 321 25.6
2019-Jul-20 10:52 023 25.6
2019-Jul-20 10:47 171 25.6
2019-Jul-20 10:42 142 25.6
2019-Jul-20 10:37 142 25.6
2019-Jul-20 10:32 142 26.1
2019-Jul-20 10:27 142 26.1
2019-Jul-20 10:22 028 26.1
2019-Jul-20 10:17 107 26.1
2019-Jul-20 10:12 103 0 gusting 4 25.6
2019-Jul-20 10:07 105 0 gusting 4 25.6
2019-Jul-20 10:02 132 25.6
2019-Jul-20 09:57 25.6
2019-Jul-20 09:52 25.6
2019-Jul-20 09:47 117 25.6
2019-Jul-20 09:42 116 25.6
2019-Jul-20 09:37 113 25.0
2019-Jul-20 09:32 089 25.0
2019-Jul-20 09:27 084 25.0
2019-Jul-20 09:22 084 25.0
2019-Jul-20 09:17 078 25.0
2019-Jul-20 09:12 054 25.0
2019-Jul-20 09:07 054 25.0
2019-Jul-20 09:02 054 25.0
2019-Jul-20 08:57 054 25.0
2019-Jul-20 08:52 055 25.0
2019-Jul-20 08:47 055 25.0
2019-Jul-20 08:42 026 25.0
2019-Jul-20 08:37 026 25.0
2019-Jul-20 08:32 026 25.0
2019-Jul-20 08:27 026 25.0
2019-Jul-20 08:22 026 24.4
2019-Jul-20 08:17 026 24.4
2019-Jul-20 08:12 026 24.4
2019-Jul-20 08:07 026 24.4
2019-Jul-20 08:02 026 24.4
2019-Jul-20 07:57 026 24.4
2019-Jul-20 07:52 026 24.4
2019-Jul-20 07:47 026 24.4
2019-Jul-20 07:42 026 24.4
2019-Jul-20 07:37 026 24.4
2019-Jul-20 07:32 024 24.4
2019-Jul-20 07:27 024 24.4
2019-Jul-20 07:22 024 24.4
2019-Jul-20 07:17 024 24.4
2019-Jul-20 07:12 024 24.4
2019-Jul-20 07:07 024 24.4
2019-Jul-20 07:02 024 24.4
2019-Jul-20 06:57 011 24.4
2019-Jul-20 06:52 005 24.4
2019-Jul-20 06:47 005 24.4
2019-Jul-20 06:42 005 24.4
2019-Jul-20 06:37 005 24.4
2019-Jul-20 06:32 005 24.4
2019-Jul-20 06:27 005 24.4
2019-Jul-20 06:22 005 24.4
2019-Jul-20 06:17 005 24.4
2019-Jul-20 06:12 030 24.4
2019-Jul-20 06:07 028 24.4
2019-Jul-20 06:02 030 24.4
2019-Jul-20 05:57 033 24.4
2019-Jul-20 05:52 033 24.4
2019-Jul-20 05:47 033 24.4
2019-Jul-20 05:42 033 24.4
2019-Jul-20 05:37 033 24.4
2019-Jul-20 05:32 033 24.4
2019-Jul-20 05:27 033 24.4
2019-Jul-20 05:22 033 24.4
2019-Jul-20 05:17 033 24.4
2019-Jul-20 05:12 033 24.4
2019-Jul-20 05:07 033 24.4
2019-Jul-20 05:02 033 24.4
2019-Jul-20 04:57 033 24.4
2019-Jul-20 04:52 032 24.4
2019-Jul-20 04:47 032 24.4
2019-Jul-20 04:42 036 24.4
2019-Jul-20 04:37 036 24.4
2019-Jul-20 04:32 036 24.4
2019-Jul-20 04:27 036 24.4
2019-Jul-20 04:22 036 24.4
2019-Jul-20 04:17 036 24.4
2019-Jul-20 04:12 036 24.4
2019-Jul-20 04:07 036 24.4
2019-Jul-20 04:02 036 24.4
2019-Jul-20 03:57 036 24.4
2019-Jul-20 03:52 036 24.4
2019-Jul-20 03:47 036 24.4
2019-Jul-20 03:42 036 24.4
2019-Jul-20 03:37 036 25.0
2019-Jul-20 03:32 036 25.0
2019-Jul-20 03:27 026 25.0
2019-Jul-20 03:22 026 25.0
2019-Jul-20 03:17 026 25.0
2019-Jul-20 03:12 026 25.0
2019-Jul-20 03:07 026 25.6
2019-Jul-20 03:02 024 25.6
2019-Jul-20 02:57 024 25.6
2019-Jul-20 02:52 024 25.6
2019-Jul-20 02:47 024 26.1
2019-Jul-20 02:42 024 26.1
2019-Jul-20 02:37 024 26.7
2019-Jul-20 02:32 024 26.7
2019-Jul-20 02:27 024 26.7
2019-Jul-20 02:22 024 26.7
2019-Jul-20 02:17 024 26.7
2019-Jul-20 02:12 024 0 gusting 2 26.1
2019-Jul-20 02:07 024 0 gusting 3 26.1
2019-Jul-20 02:02 024 1 gusting 3 26.1
2019-Jul-20 01:57 013 1 gusting 6 26.1
2019-Jul-20 01:52 046 1 gusting 6 26.1
2019-Jul-20 01:47 040 2 gusting 7 26.1
2019-Jul-20 01:42 026 3 gusting 8 26.7
2019-Jul-20 01:37 355 2 gusting 8 26.7
2019-Jul-20 01:32 022 2 gusting 6 26.1
2019-Jul-20 01:27 005 1 gusting 5 26.1
2019-Jul-20 01:22 027 1 gusting 6 26.7
2019-Jul-20 01:17 036 2 gusting 7 26.7
2019-Jul-20 01:12 027 3 gusting 7 26.7
2019-Jul-20 01:07 026 3 gusting 8 26.7
2019-Jul-20 01:02 048 2 gusting 8 26.7
2019-Jul-20 00:57 024 0 gusting 7 26.7
2019-Jul-20 00:52 074 0 gusting 4 26.7
2019-Jul-20 00:47 026 0 gusting 4 26.7
2019-Jul-20 00:42 035 0 gusting 4 26.7
2019-Jul-20 00:37 023 0 gusting 2 26.1
2019-Jul-20 00:32 024 1 gusting 3 26.1
2019-Jul-20 00:27 169 1 gusting 5 26.7
2019-Jul-20 00:22 030 1 gusting 8 26.7
2019-Jul-20 00:17 173 2 gusting 8 26.7
2019-Jul-20 00:12 280 2 gusting 9 27.2
2019-Jul-20 00:07 123 2 gusting 12 27.8
2019-Jul-20 00:02 309 4 gusting 13 28.3
2019-Jul-19 23:57 207 3 gusting 13 30.0
2019-Jul-19 23:52 028 0 gusting 7 31.7
2019-Jul-19 23:47 028 31.7
2019-Jul-19 23:42 028 0 gusting 3 31.7
2019-Jul-19 23:37 019 0 gusting 3 31.7
2019-Jul-19 23:32 355 0 gusting 3 31.7
2019-Jul-19 23:27 275 0 gusting 4 31.7
2019-Jul-19 23:22 017 0 gusting 4 31.7
2019-Jul-19 23:17 276 0 gusting 3 31.7
2019-Jul-19 23:12 036 1 gusting 6 31.7
2019-Jul-19 23:07 024 1 gusting 6 32.2
2019-Jul-19 23:02 027 1 gusting 5 32.2